Regional Weather Roundup
Issued by NWS

Home | Current Version | Previous Version | Graphics & Text | Print | Product List | Glossary On
Versions: 1 2 3 4 5 6 7 8 9 10 11 12 13 14 15 16 17 18 19 20 21 22 23 24 25 26 27 28 29 30 31 32 33 34 35 36 37 38 39 40 41 42 43 44 45 46 47 48 49 50
638
ASUS44 KMEG 070510
RWRTN
TENNESSEE HOURLY STATE WEATHER ROUNDUP
NATIONAL WEATHER SERVICE MEMPHIS TN
1100 PM CST SAT FEB 06 2016

TNZ002-004-019-021-049-052-054-088>092-070600-
WEST TENNESSEE

CITY           SKY/WX    TMP DP  RH WIND       PRES   REMARKS
MEMPHIS INTL   CLEAR     37  23  56 CALM      30.30F
NWS MEMPHIS      N/A     32 N/A N/A MISG        N/A
JACKSON        CLEAR     27  23  85 S3        30.30S
DYERSBURG      CLEAR     36  25  64 CALM      30.31S
UNION CITY     CLEAR     36  25  64 CALM      30.26F
PARIS          CLEAR     36  21  55 CALM      30.28F
LEXINGTON      CLEAR     27  25  93 CALM      30.27F
$$

TNZ008-025-027-028-033-062-065-066-070600-
NORTH MIDDLE TENNESSEE

CITY           SKY/WX    TMP DP  RH WIND       PRES   REMARKS
NASHVILLE      CLEAR     34  24  67 CALM      30.28F
CLARKSVILLE    CLEAR     33  24  69 CALM      30.27F
SMYRNA         CLEAR     29  25  85 CALM      30.29F
COOKEVILLE     CLEAR     27  25  93 CALM      30.24F
CROSSVILLE     CLOUDY    32  18  56 CALM      30.24F
$$

TNZ061-075-076-078-094-096-097-070600-
SOUTH MIDDLE TENNESSEE

CITY           SKY/WX    TMP DP  RH WIND       PRES   REMARKS
FAYETTEVILLE   PTCLDY    37  27  65 CALM      30.26F
TULLAHOMA      CLEAR     30  25  80 CALM      30.27S
WINCHESTER     CLEAR     30  27  86 CALM      30.27F
MCMINNVILLE    CLEAR     30  27  86 CALM      30.26S
COLUMBIA       CLEAR     30  30 100 CALM      30.26F
SHELBYVILLE    CLEAR     28  27  93 E3        30.28F
$$

TNZ017-018-042-046-047-070600-
NORTHEAST TENNESSEE

CITY           SKY/WX    TMP DP  RH WIND       PRES   REMARKS
TRI CITIES     PTCLDY    27  21  78 CALM      30.24F
$$

TNZ012-013-036-069-073-074-070600-
CENTRAL EAST TENNESSEE

CITY           SKY/WX    TMP DP  RH WIND       PRES   REMARKS
KNOXVILLE      PTCLDY    35  22  58 CALM      30.25F
OAK RIDGE      PTCLDY    35  27  72 CALM      30.27F
GATLINBURG       N/A     27  19  74 CALM      30.26S
MORRISTOWN     MOCLDY    34  23  64 CALM      30.24S
$$

TNZ083-085-099-070600-
SOUTHEAST TENNESSEE

CITY           SKY/WX    TMP DP  RH WIND       PRES   REMARKS
CHATTANOOGA    PTCLDY    36  23  59 CALM      30.27F
$$

SKY/WX REPORTED AS FAIR MEANS FEW OR NO CLOUDS BELOW
12 THOUSAND FEET.





USA.gov is the U.S. government's official web portal to all federal, state and local government web resources and services.